EW9033 Weather Reports


time (UTC)temp
C
wind
direction
speed
KPH
gust
KPH
rain 1hr
cm
rain 24hr
cm
rain mn
cm
humidity
%
barometer
mb
20260503190504 12 313 9.7 29.0 0.00 0.20 0.20 38 1014.0
20260503190008 13 202 16.1 29.0 0.00 0.20 0.20 40 1014.0
20260503185503 12 245 12.9 22.5 0.00 0.20 0.20 38 1014.2
20260503185004 12 259 9.7 19.3 0.00 0.20 0.20 41 1014.2
20260503184506 12 199 9.7 22.5 0.00 0.20 0.20 39 1014.3
20260503184004 13 284 9.7 30.6 0.00 0.20 0.20 37 1014.3
20260503183503 13 307 12.9 30.6 0.00 0.20 0.20 41 1014.3
20260503183009 12 242 11.3 22.5 0.00 0.20 0.20 39 1014.4
20260503182505 12 225 4.8 22.5 0.00 0.20 0.20 39 1014.5
20260503182003 12 200 8.0 17.7 0.00 0.20 0.20 44 1014.5
20260503181508 12 234 6.4 24.1 0.00 0.20 0.20 40 1014.5
20260503181005 12 271 6.4 24.1 0.00 0.20 0.20 40 1014.5
20260503180507 12 296 6.4 20.9 0.00 0.20 0.20 39 1014.6
20260503180010 12 313 8.0 22.5 0.00 0.20 0.20 39 1014.6
20260503175504 12 256 12.9 27.4 0.00 0.20 0.20 41 1014.8
20260503175004 12 223 12.9 27.4 0.00 0.20 0.20 42 1014.8
20260503174507 12 229 3.2 22.5 0.00 0.20 0.20 45 1014.9
20260503174006 12 271 4.8 27.4 0.00 0.20 0.20 42 1015.0
20260503173503 12 268 9.7 27.4 0.00 0.20 0.20 41 1015.2
20260503173008 12 283 12.9 25.7 0.00 0.20 0.20 38 1015.0
20260503172505 12 5 11.3 22.5 0.00 0.20 0.20 39 1015.1
20260503172003 11 290 3.2 22.5 0.03 0.20 0.20 41 1015.3
20260503171508 11 162 11.3 29.0 0.03 0.20 0.20 41 1015.4
20260503171003 11 170 9.7 29.0 0.03 0.20 0.20 40 1015.4
20260503170504 11 284 9.7 24.1 0.03 0.20 0.20 41 1015.5
20260503150503 9 209 8.0 20.9 0.03 0.18 0.18 44 1016.4
20260503131005 5 216 3.2 12.9 0.08 0.10 0.10 74 1017.0
20260503110504 -1 343 0.0 0.0 0.00 0.00 0.00 94 1016.0
20260503090504 -1 343 0.0 0.0 0.00 0.00 0.00 93 1015.4
20260503081523 -1 343 0.0 0.0 0.00 0.00 0.00 92 1015.5
20260503081007 0 343 0.0 0.0 0.00 0.00 0.00 92 1015.4
20260503080507 0 343 0.0 0.0 0.00 0.00 0.00 92 1015.4
20260503072505 0 343 0.0 0.0 0.00 0.00 0.00 92 1015.2
20260503072013 0 343 0.0 0.0 0.00 0.00 0.00 92 1015.3
20260503071518 0 343 0.0 0.0 0.00 0.00 0.00 92 1015.2
20260503071005 0 343 0.0 0.0 0.00 0.00 0.00 92 1015.3
20260503070507 0 343 0.0 0.0 0.00 0.00 0.00 92 1015.3
20260503055009 0 343 0.0 0.0 0.00 0.00 0.00 91 1015.4
20260503054520 0 343 0.0 0.0 0.00 0.00 0.00 91 1015.4
20260503054006 0 343 0.0 0.0 0.00 0.00 0.00 91 1015.5
20260503053508 0 343 0.0 0.0 0.00 0.00 0.00 91 1015.5
20260503053023 0 343 0.0 0.0 0.00 0.00 0.00 91 1015.6
20260503052002 0 343 0.0 0.0 0.00 0.00 0.00 90 1015.6
20260503051511 0 343 0.0 0.0 0.00 0.00 0.00 90 1015.6
20260503045004 0 343 0.0 0.0 0.00 0.00 0.00 90 1015.7
20260503044508 0 343 0.0 0.0 0.00 0.00 0.00 90 1015.7
20260503044003 0 343 0.0 0.0 0.00 0.00 0.00 90 1015.7
20260503043502 0 343 0.0 0.0 0.00 0.00 0.00 90 1015.7
20260503043029 0 343 0.0 0.0 0.00 0.00 0.00 89 1015.8
20260503042506 0 343 0.0 0.0 0.00 0.00 0.00 89 1015.8
20260503042003 0 343 0.0 0.0 0.00 0.00 0.00 88 1015.8
20260503041507 0 343 0.0 0.0 0.00 0.00 0.00 88 1015.8
20260503041007 0 343 0.0 0.0 0.00 0.00 0.00 88 1015.9
20260503040504 0 343 0.0 0.0 0.00 0.00 0.00 88 1015.8
20260503040008 0 343 0.0 0.0 0.00 0.00 0.00 88 1015.8
20260503035003 0 343 0.0 0.0 0.00 0.00 0.00 87 1015.9
20260503034003 1 343 0.0 0.0 0.00 0.00 0.00 86 1015.8
20260503033504 1 343 0.0 0.0 0.00 0.00 0.00 86 1015.8
20260503033016 1 343 0.0 0.0 0.00 0.00 0.00 85 1015.8
20260503032504 1 343 0.0 0.0 0.00 0.00 0.00 85 1015.8
20260503032002 1 343 0.0 0.0 0.00 0.00 0.00 84 1015.8
20260503031508 1 343 0.0 0.0 0.00 0.00 0.00 84 1015.8
20260503031002 1 343 0.0 0.0 0.00 0.00 0.00 84 1015.9
20260503030501 2 343 0.0 0.0 0.00 0.00 0.00 84 1015.9
20260503030007 2 343 0.0 0.0 0.00 0.00 0.00 83 1015.9
20260503025503 2 343 0.0 0.0 0.00 0.00 0.00 82 1015.9
20260503025003 2 343 0.0 0.0 0.00 0.00 0.00 82 1015.9
20260503024516 2 343 0.0 0.0 0.00 0.00 0.00 82 1015.9
20260503024004 2 343 0.0 0.0 0.00 0.00 0.00 82 1015.9
20260503023505 2 343 0.0 0.0 0.00 0.00 0.00 81 1016.0
20260503023006 2 343 0.0 0.0 0.00 0.00 0.00 81 1016.0
20260503022503 2 343 0.0 0.0 0.00 0.00 0.00 81 1016.1
20260503022004 2 343 0.0 0.0 0.00 0.00 0.00 80 1016.1
20260503021524 2 343 0.0 0.0 0.00 0.00 0.00 79 1016.1
20260503021003 2 343 0.0 0.0 0.00 0.00 0.00 78 1016.1
20260503020502 2 343 0.0 0.0 0.00 0.00 0.00 78 1016.0
20260503020007 3 343 0.0 0.0 0.00 0.00 0.00 78 1016.1
20260503015506 3 343 0.0 0.0 0.00 0.00 0.00 77 1016.0
20260503015004 3 343 0.0 0.0 0.00 0.00 0.00 75 1016.0
20260503014505 3 343 0.0 0.0 0.00 0.00 0.00 73 1016.0
20260503014003 3 343 0.0 0.0 0.00 0.00 0.00 72 1016.0
20260503013503 3 343 0.0 1.6 0.00 0.00 0.00 72 1016.0
20260503013008 3 343 0.0 1.6 0.00 0.00 0.00 72 1016.0
20260503012503 3 343 0.0 1.6 0.00 0.00 0.00 71 1016.0
20260503012003 3 343 0.0 1.6 0.00 0.00 0.00 71 1016.0
20260503011506 3 343 0.0 1.6 0.00 0.00 0.00 70 1016.0
20260503011007 3 343 0.0 3.2 0.00 0.00 0.00 70 1015.9
20260503010504 3 343 0.0 3.2 0.00 0.00 0.00 70 1015.9
20260503010006 4 321 0.0 6.4 0.00 0.00 0.00 70 1016.0
20260503005504 4 312 1.6 6.4 0.00 0.00 0.00 69 1015.9
20260503005003 4 315 1.6 6.4 0.00 0.00 0.00 69 1015.9
20260503004508 4 319 0.0 12.9 0.00 0.00 0.00 69 1015.8
20260503004004 4 325 3.2 12.9 0.00 0.00 0.00 68 1015.7
20260503003503 4 15 4.8 14.5 0.00 0.00 0.00 68 1015.7
20260503003011 4 336 4.8 14.5 0.00 0.00 0.00 68 1015.6
20260503002503 4 5 3.2 9.7 0.00 0.00 0.00 68 1015.5
20260503002003 4 324 1.6 6.4 0.00 0.00 0.00 68 1015.4
20260503001505 5 360 1.6 8.0 0.00 0.00 0.00 67 1015.3
20260503001004 5 335 1.6 8.0 0.00 0.00 0.00 67 1015.4
20260503000503 5 321 1.6 8.0 0.00 0.00 0.00 67 1015.3
20260503000009 5 322 1.6 8.0 0.00 0.00 0.00 67 1015.2
20260502235503 5 346 3.2 8.0 0.00 0.00 0.00 67 1015.2
20260502235005 5 360 1.6 8.0 0.00 0.00 0.00 67 1015.2
20260502234507 5 307 3.2 8.0 0.00 0.00 0.00 67 1015.2
20260502234003 5 338 4.8 8.0 0.00 0.00 0.00 67 1015.1
20260502233503 5 329 3.2 6.4 0.00 0.00 0.00 68 1015.1
20260502233007 5 285 0.0 11.3 0.00 0.00 0.00 67 1015.1
20260502232503 5 360 3.2 11.3 0.00 0.00 0.00 67 1015.1
20260502232003 5 296 1.6 11.3 0.00 0.00 0.00 68 1015.1
20260502231513 5 331 1.6 11.3 0.00 0.00 0.00 68 1015.1
20260502231003 5 286 1.6 14.5 0.00 0.00 0.00 68 1015.1
20260502230504 5 314 3.2 14.5 0.00 0.00 0.00 68 1015.1
20260502230009 5 287 6.4 14.5 0.00 0.00 0.00 67 1015.2
20260502225504 5 309 8.0 14.5 0.00 0.00 0.00 67 1015.2
20260502225004 5 328 3.2 8.0 0.00 0.00 0.00 70 1015.2
20260502224505 5 305 1.6 11.3 0.00 0.00 0.00 70 1015.2
20260502224005 5 331 4.8 11.3 0.00 0.00 0.00 70 1015.2
20260502223020 5 329 3.2 12.9 0.00 0.00 0.00 71 1015.1
20260502222510 5 271 6.4 11.3 0.00 0.00 0.00 70 1015.1
20260502222011 5 310 1.6 11.3 0.00 0.00 0.00 71 1015.2
20260502221521 5 311 1.6 8.0 0.00 0.00 0.00 71 1015.2
20260502221007 5 318 1.6 6.4 0.00 0.00 0.00 72 1015.2
20260502220511 5 335 1.6 11.3 0.00 0.00 0.00 71 1015.2
20260502220025 5 344 3.2 11.3 0.00 0.00 0.00 70 1015.2
20260502215507 5 327 4.8 14.5 0.00 0.00 0.00 70 1015.1
20260502215010 5 315 3.2 14.5 0.00 0.00 0.00 70 1015.1
20260502214523 5 337 4.8 12.9 0.00 0.00 0.00 70 1015.1
20260502213023 5 319 3.2 17.7 0.00 0.00 0.00 69 1015.0
20260502212508 5 333 4.8 17.7 0.00 0.00 0.00 69 1014.9
20260502212009 5 352 6.4 17.7 0.00 0.00 0.00 68 1014.9
20260502211522 5 308 8.0 17.7 0.00 0.00 0.00 68 1014.7
20260502211009 5 315 4.8 16.1 0.00 0.00 0.00 68 1014.7
20260502210508 6 317 6.4 16.1 0.00 0.00 0.00 68 1014.6
20260502210023 6 309 4.8 19.3 0.00 0.00 0.00 67 1014.6
20260502205510 6 335 8.0 20.9 0.00 0.00 0.00 67 1014.6
20260502205012 6 294 11.3 20.9 0.00 0.00 0.00 69 1014.7
20260502204533 5 20 6.4 20.9 0.00 0.00 0.00 69 1014.7
20260502204007 5 348 8.0 17.7 0.00 0.00 0.00 68 1014.7
20260502203509 6 21 8.0 16.1 0.00 0.00 0.00 69 1014.8
20260502203023 6 325 4.8 17.7 0.00 0.00 0.00 72 1014.9
20260502201526 5 326 9.7 19.3 0.00 0.00 0.00 73 1014.9
20260502201007 5 42 6.4 20.9 0.00 0.00 0.00 74 1015.0
20260502200511 5 322 11.3 20.9 0.00 0.00 0.00 76 1015.0
20260502200040 5 360 9.7 20.9 0.00 0.00 0.00 77 1015.0
20260502195509 5 30 9.7 20.9 0.00 0.00 0.00 76 1015.0
20260502195009 5 35 9.7 20.9 0.00 0.00 0.00 77 1015.0
20260502194521 5 325 6.4 16.1 0.00 0.00 0.00 77 1015.1
20260502194009 5 296 6.4 22.5 0.00 0.00 0.00 76 1015.1
20260502193508 5 331 9.7 22.5 0.00 0.00 0.00 75 1015.1
20260502193024 5 317 6.4 20.9 0.00 0.00 0.00 74 1015.1
20260502192505 5 360 8.0 20.9 0.00 0.00 0.00 73 1015.1